Phoenix Deer Valley, AZ

2:35 PM MST on December 06, 2019 (GMT -0700)
Phoenix-Deer Valley Municipal

Weather History for KDVT - November, 2019

Change the Weather History Date:

Friday, November 22, 2019

  Actual Average Record
Temperature  
Mean Temperature 56 °F -  
Max Temperature 63 °F 68 °F 86 °F (2017)
Min Temperature 50 °F 47 °F 41 °F (2014)
Degree Days  
Heating Degree Days 8    
Growing Degree Days 6 (Base 50)    
Moisture  
Dew Point 45 °F    
Average Humidity 73    
Maximum Humidity 92    
Minimum Humidity 46    
Precipitation  
Precipitation 0.00 in - - ()
Sea Level Pressure  
Sea Level Pressure 30.11 in    
Wind  
Wind Speed 3 mph ()    
Max Wind Speed 7 mph    
Max Gust Speed -    
Visibility 10.0 miles    
Events      
Averages and records for this station are not official NWS values.
T = Trace of Precipitation, MM = Missing Value Source: Averaged Metar Reports

Daily Weather History Graph

Daily Weather History Graph

Search for Another Location

Airport or City:

Astronomy

Nov. 22, 2019 Rise Set
Actual Time 7:06 AM MST 5:21 PM MST
Civil Twilight 6:39 AM MST 5:48 PM MST
Nautical Twilight 6:09 AM MST 6:19 PM MST
Astronomical Twilight 5:39 AM MST 6:49 PM MST
Moon 2:34 AM MST (11/22) 3:09 PM MST (11/22)
Length of Visible Light 11h 09m
Length of Day
10h 15m
Waning Crescent, 19% of the Moon is Illuminated
Nov 22
Waning Crescent
Nov 26
New
Dec 3
First Quarter
Dec 11
Full
Dec 18
Last Quarter

Hourly Weather History & Observations

Time (MST) Temp. Dew Point Humidity Pressure Visibility Wind Dir Wind Speed Gust Speed Precip Events Conditions
12:53 AM 51.1 °F 46.9 °F 86% 30.08 in 10.0 mi NE 4.6 mph - N/A   Overcast
1:22 AM 51.1 °F 46.0 °F 83% 30.11 in 10.0 mi NE 4.6 mph - N/A   Overcast
1:51 AM 51.8 °F 46.4 °F 82% 30.12 in 10.0 mi NE 3.5 mph - N/A   Overcast
1:53 AM 51.1 °F 46.9 °F 86% 30.09 in 10.0 mi NE 3.5 mph - N/A   Overcast
2:53 AM 51.1 °F 48.9 °F 92% 30.10 in 10.0 mi NNW 3.5 mph - N/A   Overcast
3:53 AM 52.0 °F 46.9 °F 83% 30.09 in 10.0 mi NE 5.8 mph - N/A   Overcast
4:53 AM 50.0 °F 46.9 °F 89% 30.10 in 10.0 mi NE 4.6 mph - N/A   Mostly Cloudy
5:04 AM 51.1 °F 46.9 °F 86% 30.12 in 10.0 mi Calm Calm - N/A   Mostly Cloudy
5:53 AM 50.0 °F 46.0 °F 86% 30.11 in 10.0 mi Calm Calm - N/A   Partly Cloudy
6:53 AM 50.0 °F 46.0 °F 86% 30.13 in 10.0 mi ENE 5.8 mph - N/A   Clear
7:53 AM 50.0 °F 46.0 °F 86% 30.14 in 10.0 mi NNE 4.6 mph - N/A   Clear
8:53 AM 54.0 °F 46.0 °F 75% 30.15 in 10.0 mi NE 3.5 mph - N/A   Clear
9:53 AM 57.9 °F 46.0 °F 65% 30.16 in 10.0 mi Calm Calm - N/A   Clear
11:53 AM 60.1 °F 45.0 °F 57% 30.12 in 10.0 mi Calm Calm - N/A   Clear
12:53 PM 61.0 °F 44.1 °F 54% 30.10 in 10.0 mi SSE 4.6 mph - N/A   Clear
1:53 PM 62.1 °F 43.0 °F 50% 30.07 in 10.0 mi SW 4.6 mph - N/A   Partly Cloudy
2:53 PM 63.0 °F 42.1 °F 46% 30.06 in 10.0 mi West 3.5 mph - N/A   Clear
3:53 PM 62.1 °F 42.1 °F 48% 30.06 in 10.0 mi SSW 6.9 mph - N/A   Clear
4:53 PM 61.0 °F 42.1 °F 50% 30.07 in 10.0 mi WSW 4.6 mph - N/A   Clear
5:53 PM 59.0 °F 44.1 °F 58% 30.07 in 10.0 mi Calm Calm - N/A   Clear
6:53 PM 57.0 °F 45.0 °F 64% 30.09 in 10.0 mi Calm Calm - N/A   Clear
7:53 PM 55.9 °F 46.0 °F 69% 30.11 in 10.0 mi North 3.5 mph - N/A   Clear
8:53 PM 54.0 °F 46.0 °F 75% 30.12 in 10.0 mi NE 5.8 mph - N/A   Clear
9:53 PM 53.1 °F 46.0 °F 77% 30.12 in 10.0 mi NNE 5.8 mph - N/A   Clear
10:53 PM 51.1 °F 45.0 °F 80% 30.13 in 10.0 mi Calm Calm - N/A   Clear
11:53 PM 51.1 °F 44.1 °F 77% 30.13 in 10.0 mi ENE 4.6 mph - N/A   Clear